Location: ???
(35.5616°N, 139.7977°E)
Time: 19:41:53
(UTC+00:00)

SJ 16-02 - Pass Details

Date: 17 November 2025
Orbit: 585 x 594 km, 75.0° (Epoch: 08 December)

Event Time Altitude Azimuth Distance (km) Brightness Sun altitude
Exits shadow 18:39:18 25° 81° (E) 1,187 3.3 -32.4°
Drops below altitude 10° 18:42:18 10° 125° (SE) 1,904 4.5 -31.8°
Sets 18:44:47 0° 138° (SE) 2,799 5.3 -31.3°
